Location: Montbazon
(47.2835°N, 0.6999°E)
Time: 14:16:59
(UTC+00:00)

Cosmos 2173 Rocket - Visible Passes

Search period start: 14 February 2026 00:00
Search period end: 24 February 2026 00:00
Orbit: 944 x 999 km, 82.9° (Epoch: 13 February)

Date Brightness Start Highest point End Pass type
(mag) Time Alt. Az. Time Alt. Az. Time Alt. Az.
14 Feb 4.9 05:39:59 10° SSE 05:46:09 55° E 05:52:21 10° NNE visible
14 Feb 6.2 18:17:49 10° NNW 18:23:00 28° W 18:28:08 10° SW visible
15 Feb 6.9 04:22:13 10° ESE 04:25:53 16° ENE 04:29:33 10° NE visible
15 Feb 4.1 06:03:52 10° S 06:10:15 90° ESE 06:16:40 10° N visible
15 Feb 6.9 18:42:59 10° NW 18:46:43 17° WNW 18:50:26 10° WSW visible
16 Feb 6.1 04:44:25 10° SE 04:49:37 27° E 04:54:48 10° NNE visible
17 Feb 5.2 05:07:30 10° SSE 05:13:29 45° E 05:19:29 10° NNE visible
18 Feb 7.0 03:50:44 10° E 03:53:22 13° ENE 03:55:59 10° NE visible
18 Feb 4.3 05:31:11 10° S 05:37:31 75° E 05:43:52 10° NNE visible
18 Feb 6.7 18:09:46 10° NW 18:14:09 21° W 18:18:31 10° SW visible
19 Feb 6.4 04:12:18 10° SE 04:17:01 22° E 04:21:43 10° NNE visible
19 Feb 4.0 05:55:22 10° SSW 06:01:42 68° W 06:08:03 10° N visible
19 Feb 7.2 18:35:51 10° WNW 18:37:46 11° WNW 18:39:42 10° W visible
20 Feb 5.5 04:35:06 10° SSE 04:40:50 37° E 04:46:33 10° NNE visible
20 Feb 4.4 06:20:05 10° SW 06:26:03 41° WNW 06:32:02 10° N visible
21 Feb 4.6 04:58:34 10° S 05:04:48 62° E 05:11:03 10° NNE visible
22 Feb 6.6 03:40:22 10° ESE 03:44:27 18° E 03:48:31 10° NE visible
22 Feb 4.0 05:22:33 10° S 05:28:56 82° W 05:35:19 10° N visible
22 Feb 6.9 18:02:04 10° NW 18:05:15 15° WNW 18:08:24 10° WSW visible
23 Feb 5.8 04:02:48 10° SE 04:08:12 30° E 04:13:35 10° NNE visible
23 Feb 4.2 05:47:04 10° SSW 05:53:13 50° WNW 05:59:22 10° N visible
